Погода в Бисмарке

США     46°47′42″N   100°46′59″W
темп.,
°C
ветер,
м/с
пор.,
м/с
влажн.,
%
обл.,
%
осадки,
мм/ч
давл.,
гПа
погр.,
м
16 октября, сб
сб1601:00+5зюз36630 0.0 1018100
04:00+4зюз38674 0.0 1018140
07:00+4зюз36690 0.0 1018110
10:00+8з49630 0.0 1019288
13:00+15зсз58420 0.0 1017828
16:00+16зсз46370 0.0 10171107
19:00+12зюз22530 0.0 101710
22:00+10юз22595 0.0 101814
17 октября, вс
вс1701:00+9ююз22655 0.0 101820
04:00+9ююз22680 0.0 101726
07:00+8ю33690 0.0 101633
10:00+12ю38600 0.0 1015195
13:00+19ююз58395 0.0 1013534
16:00+21ю57335 0.0 1010740
19:00+15ююв48515 0.0 1009126
22:00+12юв37565 0.0 1009121
18 октября, пн
пн1801:00+11юв35590 0.0 100866
04:00+10юв37590 0.0 1006114
07:00+9ююв39610 0.0 1005143
10:00+12ю4105146 0.0 1004280
13:00+19ю5836100 0.0 1003459
16:00+21ю4834100 0.0 1002644
19:00+16ююв3649100 0.0 100297
22:00+14ю235496 0.0 100325
19 октября, вт
вт1901:00+12юз11610 0.0 100410
04:00+11ссз22632 0.0 100521
07:00+9с3968100 0.0 1008172
10:00+10ссв71272100 0.0 1011508
13:00+10ссв81174100 0.0 1014828
16:00+9ссв81174100 0.0 1015894
19:00+7ссв71373100 0.0 1018935
22:00+7ссв71266100 0.0 10191032
20 октября, ср
ср2001:00+6ссв71261100 0.0 1020856
04:00+4ссв71267100 0.3 1020747
07:00+2с61291100 8.3 1022597
10:00+1с71392100 7.0 1023583
13:00+2с51086100 10.4 1024603
16:00+3с4979100 0.0 1023488
19:00+1с258156 0.0 102481
22:000ссз23865 0.0 102645